カタログに戻る

STARLINK-34445

運用中通信VLEO
NORAD 64457·PAYLOAD·🇺🇸 United States

打ち上げ Jun 18, 2025 から Cape Canaveral Space Force Station

Loading…

次のパス (今後24時間)

TLE

最新Source: CelesTrak SupGP

元期: Sep 14, 2026, 22:33 UTC

1 64457C 25130V   26257.94006944  .00051933  00000+0  15349-2 0  2576
2 64457  53.1585 285.4626 0001175  89.8116 314.5781 15.34355059    15

AllMySatでSTARLINK-34445をリアルタイム追跡

Download on the App Store